Location: Unspecified
(0.0000°N, 0.0000°E)
Time: 02:16:52
(UTC+00:00)

Explorer 11/Cluster Stage 4 - Pass Details

Date: 19 December 2018
Orbit: 467 x 1260 km, 28.8° (Epoch: 15 January)

Event Time Altitude Azimuth Distance (km) Brightness Sun altitude
Rises 19:18:41 0° 238° (WSW) 4,200 12.0 -18.6°
Reaches altitude 10° 19:21:39 10° 237° (WSW) 3,234 10.9 -19.3°
Maximum altitude 19:29:57 85° 151° (SSE) 1,204 7.4 -21.2°
Enters shadow 19:33:20 38° 63° (ENE) 1,685 7.7 -21.9°
